"Pseudo-MPEC" for C150TF2

Created 2019 Oct 10 20:07:10 UT using Find_Orb

Click here for an explanation of pseudo-MPECs

 
 Astrometry: 
     C150TF2  C2019 10 08.41328 04 12 25.52 +22 24 37.6    ~A8Aq 21.4 GVNEOCPG96
     C150TF2  C2019 10 08.41845 04 12 25.23 +22 24 04.8    ~A8Aq 21.2 GVNEOCPG96
     C150TF2  C2019 10 08.42364 04 12 24.98 +22 23 32.1    ~A8Aq 21.3 GVNEOCPG96
     C150TF2  C2019 10 08.42883 04 12 24.69 +22 22 59.0    ~A8Aq 22.0 GVNEOCPG96
     C150TF2  C2019 10 08.46637 04 12 22.67 +22 19 00.5    ~A8Bb       VNEOCPI52
     C150TF2  C2019 10 08.46748 04 12 22.62 +22 18 54.4    ~A8Bb 22.2 GVNEOCPI52
     C150TF2  C2019 10 08.46859 04 12 22.59 +22 18 48.0    ~A8Bb 21.0 GVNEOCPI52
     C150TF2 KC2019 10 09QoMKR*GgmAstrometryHQ5e#redacted;C/%H+Y(+]2*clicksysH21
     C150TF2 KC2019 10 09_gJ.:O;xw(kyY[d\$MahereL3tOoYf'c9'6RHa;jV:A^+Aqf_SEgH21
     C150TF2 KC2019 10 09nqBo!@vd3W!f%'u,75NuAIla.y,uGXforuexplanationi2Dj-u.H21
     C150TF2 KC2019 10 10.28377904 11 43.40 +19 19 52.6    ~AA7q 21.4 GVNEOCPH01
     C150TF2 KC2019 10 10.29069604 11 43.07 +19 19 15.1    ~AA7q 21.7 GVNEOCPH01
     C150TF2 KC2019 10 10.29904604 11 42.68 +19 18 29.9    ~AA7q 21.1 GVNEOCPH01
     C150TF2 KC2019 10 10.30512804 11 42.37 +19 17 57.0    ~AA7q 21.9 GVNEOCPH01

Station data:
(G96) Mt. Lemmon Survey  (N32.442754 W110.788720)  US/Arizona.  Observers T.
   A. Pruyne, B. M. Africano, E. J. Christensen, G. A. Farneth, D. C. Fuls,
   A. R. Gibbs, A. D. Grauer, H. Groeller, J. A. Johnson, R. A. Kowalski, S.
   M. Larson, G. J. Leonard, D. Rankin, R. L. Seaman, F. C. Shelly. 1.5-m
   reflector + 10K CCD.
(H01) Magdalena Ridge Observatory, Socorro  (N33.984833 W107.189333)  US/New
   Mexico.  Observers W. H. Ryan, E. V. Ryan. Measurer W. H. Ryan. 2.4-m
   f/8.9 reflector + CCD.
(H21) Astronomical Research Observatory, Westfield  (N39.483057 W87.968270)
   US/Illinois. 0.76-m f/3.0 astrograph + CCD.
(I52) Steward Observatory, Mt. Lemmon Station  (N32.442547 W110.788920)
   US/Arizona.  Observers T. A. Pruyne, B. M. Africano, E. J. Christensen, G.
   A. Farneth, D. C. Fuls, A. R. Gibbs, A. D. Grauer, H. Groeller, J. A.
   Johnson, R. A. Kowalski, S. M. Larson, G. J. Leonard, D. Rankin, R. L.
   Seaman, F. C. Shelly. 1.0-m reflector + CCD.

Orbital elements:  C150TF2
   Perihelion 2019 Sep 7.288825 +/- 0.0247 TT =  6:55:54 (JD 2458733.788825)
Epoch 2019 Oct 10.0 TT = JDT 2458766.5   Earth MOID: 0.0442   AutoNEOCP
M  10.60341414 +/- 0.32             (J2000 ecliptic)
n   0.32415265 +/- 0.00979          Peri.  142.93369 +/- 0.07
a   2.09879327 +/- 0.0423           Node   199.71136 +/- 0.06
e   0.5246569 +/- 0.00962           Incl.    8.89804 +/- 0.11
P   3.04                   H 24.9   G  0.15   U  9.6  
q 0.99764675 +/- 0.000108    Q 3.19993979 +/- 0.0828
From 14 observations 2019 Oct. 8-10 (45.4 hr); mean residual 0".31
Residuals in arcseconds: 
191008 G96  .29+  .32+    191008 I52  .20-  .08-    191010 H01  .26+  .13-    
191008 G96  .05+  .14+    191008 I52  .19+  .56+    191010 H01  .12+  .10-    
191008 G96  .39+  .20+    191009 H21  .59-  .25-    191010 H01  .19+  .03+    
191008 G96  .17+  .12-    191009 H21  .30-  .19+    191010 H01  .05-  .15+    
191008 I52  .31-  1.0-    191009 H21  .03-  .17+    

Ephemerides (geocentric):
Date (UTC) HH   RA              Dec         delta   r     elong  mag " sig PA
---- -- -- --  -------------   -----------  ------ ------ -----  --- ---- ---
2019 10 10 20  04 11 24.621   +18 30 40.45  .11507 1.0797 132.6 22.0 1.05 105
2019 10 10 21  04 11 23.427   +18 26 59.30  .11524 1.0799 132.6 22.1 1.07 104
2019 10 10 22  04 11 22.228   +18 23 18.81  .11542 1.0801 132.7 22.1 1.09 103
2019 10 10 23  04 11 21.023   +18 19 38.97  .11560 1.0803 132.7 22.1 1.11 103
2019 10 11 00  04 11 19.814   +18 15 59.78  .11577 1.0805 132.8 22.1 1.13 102
2019 10 11 01  04 11 18.599   +18 12 21.24  .11595 1.0807 132.8 22.1 1.15 101
2019 10 11 02  04 11 17.380   +18 08 43.34  .11613 1.0809 132.9 22.1 1.16 100
2019 10 11 03  04 11 16.155   +18 05 06.09  .11630 1.0811 132.9 22.1 1.18  99
2019 10 11 04  04 11 14.926   +18 01 29.48  .11648 1.0813 133.0 22.1 1.20  98
2019 10 11 05  04 11 13.691   +17 57 53.51  .11666 1.0815 133.1 22.1 1.23  98
2019 10 11 06  04 11 12.452   +17 54 18.18  .11683 1.0816 133.1 22.1 1.25  97
2019 10 11 07  04 11 11.208   +17 50 43.48  .11701 1.0818 133.2 22.1 1.27  96
2019 10 11 08  04 11 09.958   +17 47 09.41  .11719 1.0820 133.2 22.1 1.29  95
2019 10 11 09  04 11 08.704   +17 43 35.98  .11737 1.0822 133.3 22.1 1.31  95
2019 10 11 10  04 11 07.445   +17 40 03.17  .11754 1.0824 133.3 22.1 1.33  94
2019 10 11 11  04 11 06.181   +17 36 30.99  .11772 1.0826 133.4 22.1 1.35  93
2019 10 11 12  04 11 04.912   +17 32 59.43  .11790 1.0828 133.4 22.1 1.38  92
2019 10 11 13  04 11 03.638   +17 29 28.50  .11808 1.0830 133.5 22.1 1.40  92
2019 10 11 14  04 11 02.360   +17 25 58.18  .11826 1.0832 133.5 22.1 1.42  91
2019 10 11 15  04 11 01.076   +17 22 28.48  .11844 1.0834 133.6 22.1 1.45  90
2019 10 11 16  04 10 59.788   +17 18 59.40  .11862 1.0836 133.6 22.1 1.47  90
2019 10 11 17  04 10 58.495   +17 15 30.93  .11879 1.0838 133.7 22.1 1.50  89
2019 10 11 18  04 10 57.197   +17 12 03.07  .11897 1.0840 133.7 22.1 1.52  88
2019 10 11 19  04 10 55.894   +17 08 35.82  .11915 1.0842 133.8 22.1 1.55  88
2019 10 11 20  04 10 54.587   +17 05 09.18  .11933 1.0844 133.9 22.1 1.57  87
2019 10 11 21  04 10 53.275   +17 01 43.14  .11951 1.0846 133.9 22.1 1.60  86
2019 10 11 22  04 10 51.958   +16 58 17.70  .11969 1.0848 134.0 22.1 1.63  86
2019 10 11 23  04 10 50.636   +16 54 52.87  .11987 1.0849 134.0 22.1 1.65  85
2019 10 12 00  04 10 49.310   +16 51 28.63  .12005 1.0851 134.1 22.1 1.68  84
2019 10 12 01  04 10 47.979   +16 48 04.99  .12023 1.0853 134.1 22.1 1.71  84
2019 10 12 02  04 10 46.643   +16 44 41.95  .12041 1.0855 134.2 22.1 1.73  83
2019 10 12 03  04 10 45.303   +16 41 19.49  .12059 1.0857 134.2 22.1 1.76  83
2019 10 12 04  04 10 43.958   +16 37 57.63  .12077 1.0859 134.3 22.1 1.79  82
2019 10 12 05  04 10 42.608   +16 34 36.36  .12095 1.0861 134.3 22.1 1.82  82
2019 10 12 06  04 10 41.253   +16 31 15.67  .12114 1.0863 134.4 22.1 1.85  81
2019 10 12 07  04 10 39.894   +16 27 55.56  .12132 1.0865 134.4 22.1 1.88  81
2019 10 12 08  04 10 38.531   +16 24 36.04  .12150 1.0867 134.5 22.1 1.91  80
2019 10 12 09  04 10 37.163   +16 21 17.10  .12168 1.0869 134.5 22.1 1.94  80
2019 10 12 10  04 10 35.790   +16 17 58.73  .12186 1.0871 134.6 22.1 1.97  79
2019 10 12 11  04 10 34.412   +16 14 40.95  .12204 1.0873 134.6 22.1 2.00  79
2019 10 12 12  04 10 33.030   +16 11 23.73  .12222 1.0875 134.7 22.1 2.03  78
2019 10 12 13  04 10 31.644   +16 08 07.09  .12241 1.0877 134.7 22.1 2.06  78
2019 10 12 14  04 10 30.252   +16 04 51.02  .12259 1.0879 134.8 22.1 2.10  77
2019 10 12 15  04 10 28.857   +16 01 35.52  .12277 1.0881 134.8 22.1 2.13  77
2019 10 12 16  04 10 27.457   +15 58 20.58  .12295 1.0883 134.9 22.1 2.16  76
2019 10 12 17  04 10 26.052   +15 55 06.21  .12314 1.0885 135.0 22.1 2.19  76
2019 10 12 18  04 10 24.643   +15 51 52.40  .12332 1.0887 135.0 22.1 2.23  75
2019 10 12 19  04 10 23.229   +15 48 39.15  .12350 1.0889 135.1 22.1 2.26  75